sat.trackr.live / text

‹ back to catalog

SITRO-AIS 24

NORAD 61741 · 2024-199G

PAYLOAD ACTIVE UNKNOWN

§ Identity

Operator
Country
CIS
Launch date
2024-11-04
Launch site
VOSTO
Launch vehicle
Mass (kg)
RCS (m²)

External: N2YO · Heavens-Above · Gunter

§ Orbital elements

Epoch: 2026-05-25T03:32:44.867328Z

Period
96.26 min
Inclination
97.3264°
Eccentricity
0.0013466
Mean motion
14.96023276 rev/d
Perigee alt
569.8 km
Apogee alt
588.6 km
Semi-major
6,957.3 km
B*
2.0136e-4
RAAN
344.6936°
Arg perigee
136.9094°
Mean anomaly
223.3185°
Rev number
12,844

§ Raw data

SITRO-AIS 241 61741U 24199G   26145.14774152  .00002211  00000+0  20136-3 0  99932 61741  97.3264 344.6936 0013466 136.9094 223.3185 14.96023276128442

JSON: /api/v1/satellites/61741 · /tle

For live sub-satellite position, see the globe view (requires WebGL).

§ Visibility from observer

Set your observer location to see the next 7 days of passes ≥ 10°. The values pass through the URL so the page stays shareable.

No JS? Fill the form by hand. The geolocation button needs JavaScript.

§ Radio — SatNOGS DB

ModeDescriptionDownlinkUplink
GMSK USP Mode U - GMSK2k4 - USP 401.235 MHz

1 transmitter · refreshed weekly from db.satnogs.org